[[{"header":{"parameterUnit":"m.s-1","parameterCategory":1,"la1":30.2991,"la2":30.254,"lo1":-89.0895,"lo2":-89.0444,"dy":0.0017,"dx":0.0017,"nx":28,"ny":28,"refTime":"2024-04-22T09:00:00:Z","depth":0,"parameterNumber":2,"parameterNumberName":"U-component_of_WINDS"},"data":[0,0,0,0,0,0,0,0,0,0,0,0,0,0,0,0,0,0,0,0,0,0,0,0,0,0,0,0,0,0,0,0,0,0,0,0,0,0,0,0,0,0,0,0,0,0,0,0,0,0,0,0,0,0,0,0,0,0,-1.4144,-1.4144,0,-1.4173,-1.4173,-1.4174,-1.4162,-1.4161,-1.416,-1.4159,-1.4188,-1.419,-1.4191,0,0,0,0,0,0,0,0,0,0,0,0,0,-1.4078,-1.4079,-1.4144,-1.4144,-1.4145,-1.4173,-1.4173,-1.4174,-1.4162,-1.4161,-1.416,-1.4159,-1.4188,-1.4189,-1.4191,0,0,0,0,0,0,0,0,0,0,0,0,0,-1.4107,-1.408,-1.4144,-1.4142,-1.4142,-1.4173,-1.4173,-1.4174,-1.4162,-1.4161,-1.416,-1.4159,-1.4187,-1.4189,-1.4191,-1.4225,0,0,-1.4198,-1.4199,0,0,0,0,0,0,0,0,-1.4105,-1.4109,-1.4142,-1.4142,-1.4143,-1.4163,-1.4161,-1.4191,-1.4162,-1.4154,-1.4159,-1.4158,-1.4181,-1.4183,-1.4191,-1.4227,-1.4228,-1.4198,-1.4199,-1.42,-1.4201,0,0,0,0,0,0,0,-1.4103,-1.4108,-1.4155,-1.4143,-1.4143,-1.414,-1.4143,-1.4166,-1.4173,-1.4155,-1.4154,-1.4158,-1.418,-1.4189,-1.4191,-1.4228,-1.4198,-1.42,-1.4201,-1.4202,-1.4294,-1.4295,0,0,0,0,0,0,-1.4101,-1.4106,-1.4155,-1.4156,-1.4121,-1.4142,-1.4145,-1.4157,-1.4173,-1.4174,-1.4159,-1.4157,-1.4186,-1.4189,-1.4192,-1.4233,-1.42,-1.4202,-1.4203,-1.4293,-1.4294,-1.4295,0,0,0,0,0,0,-1.41,-1.4106,-1.4153,-1.4131,-1.4137,-1.4144,-1.4158,-1.4158,-1.4167,-1.4175,-1.4176,-1.4166,-1.4185,-1.4189,-1.4217,-1.4234,-1.4203,-1.4205,-1.4291,-1.4293,-1.4295,-1.4316,0,0,0,0,0,0,-1.4098,-1.4105,-1.4118,-1.4132,-1.4138,-1.4178,-1.4159,-1.416,-1.417,-1.4169,-1.4183,-1.4184,-1.4185,-1.4214,-1.4219,-1.4237,-1.4207,-1.429,-1.4292,-1.4294,-1.4313,-1.4318,-1.4322,0,0,0,0,0,-1.4096,-1.4123,-1.4119,-1.4125,-1.4155,-1.4179,-1.4183,-1.4183,-1.4172,-1.4185,-1.4191,-1.4183,-1.4232,-1.4217,-1.4223,-1.4241,-1.4289,-1.4291,-1.4294,-1.4312,-1.4317,-1.4321,0,0,0,0,0,0,-1.4111,-1.4124,-1.412,-1.4152,-1.4165,-1.4177,-1.4193,-1.4189,-1.4204,-1.4202,-1.4202,-1.4205,-1.4234,-1.424,-1.4224,-1.4275,-1.4258,-1.4262,-1.427,-1.4275,-1.4279,-1.4277,-1.4209,0,0,0,0,0,-1.4118,-1.4137,-1.4147,-1.4175,-1.4181,-1.4186,-1.4197,-1.4196,-1.4209,-1.4214,-1.4222,-1.4234,-1.4252,-1.4264,-1.4281,-1.4314,-1.4317,-1.4329,-1.4334,-1.4337,-1.434,-1.4359,-1.4365,-1.4304,-1.4304,-1.4304,0,0,-1.4132,-1.4142,-1.4154,-1.4178,-1.4187,-1.4207,-1.4191,-1.4212,-1.4226,-1.4217,-1.4244,-1.425,-1.4264,-1.4295,-1.4309,-1.4301,-1.4358,-1.434,-1.4343,-1.4344,-1.4362,-1.4368,-1.4373,-1.4306,-1.4305,-1.4305,0,0,-1.4169,-1.4178,-1.4202,-1.4212,-1.4227,-1.4231,-1.4236,-1.425,-1.4253,-1.4281,-1.4274,-1.4291,-1.4322,-1.4332,-1.4342,-1.4383,-1.4377,-1.4389,-1.441,-1.4428,-1.4433,-1.4437,-1.4452,-1.4458,-1.4392,-1.4392,-1.4392,0,-1.4186,-1.4215,-1.4215,-1.4237,-1.4248,-1.4241,-1.4265,-1.4275,-1.4294,-1.4302,-1.4293,-1.4332,-1.434,-1.4374,-1.4384,-1.4392,-1.4399,-1.4387,-1.4432,-1.4437,-1.4441,-1.4455,-1.4461,-1.4393,-1.4393,-1.4393,-1.4393,0,-1.4235,-1.4255,-1.4273,-1.4292,-1.4305,-1.4328,-1.4332,-1.4345,-1.4343,-1.4347,-1.4376,-1.4386,-1.4405,-1.4413,-1.4411,-1.4446,-1.4441,-1.4432,-1.4416,-1.4448,-1.4461,-1.4467,-1.4395,-1.4395,-1.4394,-1.4394,0,0,-1.4282,-1.4301,-1.4308,-1.4317,-1.4333,-1.4349,-1.4371,-1.4391,-1.4402,-1.4416,-1.4435,-1.4461,-1.4453,-1.4464,-1.4463,-1.4479,-1.4512,-1.4469,-1.4469,-1.4477,-1.4552,-1.4559,-1.4565,-1.4508,-1.4509,-1.451,-1.4551,0,-1.432,-1.436,-1.4362,-1.4399,-1.4418,-1.4411,-1.4431,-1.4443,-1.4448,-1.4465,-1.447,-1.4489,-1.4477,-1.4483,-1.4499,-1.4505,-1.4527,-1.4502,-1.4526,-1.4527,-1.4523,-1.4572,-1.4579,-1.4617,-1.4556,-1.4557,-1.4558,0,-1.437,-1.4386,-1.4425,-1.4439,-1.4447,-1.4465,-1.4483,-1.4499,-1.4513,-1.4515,-1.4527,-1.4524,-1.4548,-1.453,-1.4563,-1.4545,-1.4555,-1.456,-1.4561,-1.4564,-1.4544,-1.4576,-1.4629,-1.4635,-1.4566,-1.4565,-1.4565,0,-1.4401,-1.4432,-1.446,-1.4468,-1.4484,-1.4497,-1.4504,-1.4517,-1.4529,-1.4544,-1.4552,-1.457,-1.4579,-1.4593,-1.4596,-1.4583,-1.4628,-1.4611,-1.4631,-1.4631,-1.4641,-1.464,-1.4697,-1.4647,-1.4647,-1.4647,-1.4647,0,-1.4444,-1.4468,-1.4474,-1.4491,-1.4518,-1.4519,-1.4546,-1.4552,-1.4563,-1.4581,-1.4577,-1.4594,-1.4596,-1.4613,-1.4615,-1.4642,-1.4646,-1.4649,-1.4649,-1.4649,-1.4649,-1.4656,-1.4653,-1.4648,-1.4648,-1.4648,-1.4647,0,-1.4483,-1.4488,-1.4518,-1.4531,-1.4535,-1.4555,-1.4566,-1.4582,-1.4587,-1.461,-1.4615,-1.4622,-1.4642,-1.4646,-1.467,-1.4671,-1.4703,-1.47,-1.4699,-1.4698,-1.4718,-1.4717,-1.4781,-1.479,-1.4734,-1.4735,-1.4735,0,-1.4511,-1.4529,-1.4545,-1.4557,-1.4565,-1.4584,-1.4596,-1.4598,-1.4611,-1.4628,-1.4642,-1.4662,-1.4678,-1.4711,-1.4718,-1.4737,-1.4735,-1.4756,-1.4737,-1.4737,-1.4735,-1.4734,-1.4736,-1.476,-1.476,-1.4761,-1.4761,0,-1.4559,-1.4561,-1.4578,-1.4597,-1.4611,-1.4626,-1.464,-1.465,-1.4653,-1.4668,-1.4689,-1.4701,-1.4726,-1.4746,-1.4765,-1.4772,-1.4768,-1.4767,-1.4773,-1.4774,-1.4772,-1.4773,-1.4709,-1.4766,-1.4765,-1.4765,-1.4765,-1.4764,-1.4593,-1.461,-1.4624,-1.4643,-1.4654,-1.4667,-1.4683,-1.469,-1.4708,-1.4728,-1.4728,-1.4751,-1.4765,-1.4789,-1.4798,-1.4816,-1.4809,-1.4817,-1.4819,-1.4821,-1.4823,-1.4769,-1.4819,-1.4819,-1.4819,-1.4819,-1.4818,0,-1.4642,-1.4651,-1.4669,-1.4689,-1.4704,-1.4699,-1.4714,-1.4727,-1.4748,-1.4761,-1.4777,-1.4801,-1.4821,-1.483,-1.4849,-1.4862,-1.486,-1.4867,-1.4866,-1.4868,-1.4828,-1.4821,-1.4868,-1.4868,-1.4868,-1.4868,-1.4868,-1.4868,-1.4669,-1.4697,-1.47,-1.4733,-1.4741,-1.4764,-1.4773,-1.4785,-1.4796,-1.4823,-1.484,-1.4845,-1.4857,-1.4877,-1.4894,-1.4896,-1.4904,-1.4911,-1.4913,-1.4875,-1.487,-1.4866,-1.4859,-1.4913,-1.4913,-1.4951,-1.4951,-1.4951]},{"header":{"parameterUnit":"m.s-1","parameterCategory":1,"la1":30.2991,"la2":30.254,"lo1":-89.0895,"lo2":-89.0444,"dy":0.0017,"dx":0.0017,"nx":28,"ny":28,"refTime":"2024-04-22T09:00:00:Z","depth":0,"parameterNumber":3,"parameterNumberName":"V-component_of_WINDS"},"data":[0,0,0,0,0,0,0,0,0,0,0,0,0,0,0,0,0,0,0,0,0,0,0,0,0,0,0,0,0,0,0,0,0,0,0,0,0,0,0,0,0,0,0,0,0,0,0,0,0,0,0,0,0,0,0,0,0,0,4.5884,4.5884,0,4.5901,4.5901,4.5901,4.585,4.5849,4.5847,4.5845,4.5861,4.5862,4.5864,0,0,0,0,0,0,0,0,0,0,0,0,0,4.5805,4.5806,4.5884,4.5884,4.5884,4.5901,4.5901,4.5901,4.585,4.5848,4.5847,4.5845,4.586,4.5862,4.5864,0,0,0,0,0,0,0,0,0,0,0,0,0,4.5832,4.5807,4.5884,4.5861,4.5859,4.5901,4.5901,4.5901,4.5851,4.5848,4.5846,4.5844,4.5859,4.5862,4.5865,4.5929,0,0,4.5873,4.5875,0,0,0,0,0,0,0,0,4.5831,4.5835,4.5864,4.5863,4.5861,4.5871,4.5879,4.5911,4.5851,4.5854,4.5845,4.5843,4.5866,4.5868,4.5876,4.593,4.593,4.5874,4.5875,4.5876,4.5877,0,0,0,0,0,0,0,4.5829,4.5834,4.5891,4.5865,4.5862,4.5849,4.585,4.5884,4.5873,4.5853,4.585,4.5853,4.5864,4.5874,4.5876,4.593,4.5873,4.5876,4.5878,4.5879,4.6035,4.6037,0,0,0,0,0,0,4.583,4.5833,4.589,4.5891,4.584,4.5852,4.5854,4.587,4.5872,4.587,4.5855,4.585,4.587,4.5873,4.5877,4.5949,4.5876,4.5879,4.5881,4.6032,4.6035,4.6038,0,0,0,0,0,0,4.5829,4.5836,4.5889,4.5861,4.5867,4.5856,4.5875,4.5872,4.5881,4.5873,4.587,4.5866,4.5868,4.5873,4.5916,4.5949,4.588,4.5883,4.6029,4.6033,4.6037,4.6097,0,0,0,0,0,0,4.5827,4.5836,4.586,4.5862,4.5868,4.5929,4.5877,4.5874,4.5886,4.588,4.5883,4.5882,4.5867,4.5912,4.5919,4.5952,4.5885,4.6026,4.6031,4.6035,4.6092,4.6102,4.6111,0,0,0,0,0,4.5824,4.5877,4.5862,4.5869,4.5899,4.5931,4.5935,4.5917,4.5889,4.5913,4.5908,4.5881,4.5945,4.5917,4.5924,4.5958,4.6024,4.603,4.6035,4.6087,4.61,4.6111,0,0,0,0,0,0,4.5878,4.5876,4.586,4.5915,4.5924,4.5923,4.5952,4.5932,4.5948,4.5942,4.5919,4.592,4.5967,4.5968,4.5936,4.6019,4.5979,4.5987,4.6017,4.6029,4.6038,4.6036,4.5887,0,0,0,0,0,4.5897,4.5924,4.5921,4.5969,4.5975,4.5963,4.5976,4.5962,4.597,4.5973,4.5971,4.5979,4.6001,4.6015,4.6035,4.6093,4.6091,4.612,4.613,4.6137,4.6143,4.6171,4.6183,4.6056,4.6056,4.6056,0,0,4.5935,4.5938,4.5956,4.598,4.5985,4.6012,4.5966,4.5997,4.6017,4.5978,4.6017,4.6017,4.6024,4.6074,4.6096,4.6076,4.6178,4.6145,4.6151,4.6152,4.6178,4.619,4.6201,4.606,4.6059,4.6059,0,0,4.6018,4.6024,4.6064,4.607,4.6079,4.6071,4.608,4.6083,4.608,4.6121,4.6091,4.6114,4.6152,4.6158,4.6166,4.6251,4.6226,4.6259,4.6308,4.6335,4.6345,4.6354,4.6381,4.6392,4.6265,4.6265,4.6265,0,4.6064,4.6104,4.6087,4.6119,4.613,4.6097,4.6137,4.6143,4.6158,4.6165,4.6143,4.6189,4.6192,4.6242,4.6263,4.6271,4.628,4.6256,4.6345,4.6354,4.6362,4.6388,4.6398,4.6268,4.6268,4.6268,4.6267,0,4.6159,4.6188,4.6219,4.6234,4.6248,4.6284,4.6271,4.6288,4.6273,4.6267,4.6307,4.631,4.6328,4.634,4.6326,4.6387,4.6374,4.635,4.6308,4.6378,4.6401,4.6412,4.6274,4.6272,4.6271,4.627,0,0,4.6275,4.628,4.6291,4.6297,4.6304,4.6325,4.6359,4.6378,4.6391,4.6403,4.6429,4.6463,4.6439,4.6448,4.6435,4.646,4.6523,4.6431,4.6431,4.6445,4.6589,4.6605,4.6617,4.6509,4.6511,4.6512,4.6587,0,4.6354,4.6412,4.6397,4.6455,4.6479,4.6449,4.6478,4.6485,4.6481,4.6501,4.6496,4.6518,4.6488,4.6492,4.6516,4.6511,4.6551,4.6506,4.6531,4.6532,4.6526,4.663,4.6647,4.6718,4.6596,4.6598,4.6599,0,4.6453,4.6468,4.6528,4.653,4.654,4.6567,4.6582,4.6602,4.6609,4.6604,4.6614,4.6595,4.6627,4.6589,4.6632,4.6601,4.6611,4.661,4.6612,4.6611,4.6567,4.6629,4.674,4.675,4.6614,4.6613,4.6612,0,4.6528,4.6564,4.6603,4.6609,4.6613,4.6632,4.6635,4.664,4.6651,4.6665,4.6672,4.6689,4.6698,4.6711,4.6697,4.6671,4.6741,4.6702,4.6736,4.6736,4.6749,4.6748,4.6861,4.6762,4.6761,4.6761,4.6761,0,4.6616,4.6653,4.6636,4.666,4.6701,4.6684,4.6724,4.6723,4.6727,4.6749,4.6725,4.6747,4.6728,4.6748,4.6738,4.6773,4.6778,4.6774,4.677,4.6774,4.6774,4.6778,4.6771,4.6764,4.6763,4.6763,4.6762,0,4.6704,4.6695,4.6736,4.6737,4.6738,4.6767,4.6767,4.6788,4.6783,4.6812,4.6817,4.6808,4.683,4.6818,4.6841,4.6834,4.6879,4.687,4.6876,4.6873,4.6906,4.6902,4.7023,4.7037,4.6931,4.6932,4.6933,0,4.6759,4.6787,4.679,4.6804,4.6808,4.683,4.6842,4.6827,4.684,4.685,4.687,4.689,4.6904,4.6941,4.6935,4.6952,4.6941,4.6983,4.6944,4.6946,4.6938,4.6935,4.6937,4.6989,4.6991,4.6992,4.6992,0,4.6857,4.6851,4.6869,4.6886,4.6901,4.6913,4.6923,4.6935,4.692,4.6936,4.6958,4.697,4.6993,4.7012,4.7026,4.7028,4.7007,4.7005,4.7013,4.7016,4.7017,4.7014,4.6894,4.7002,4.7001,4.7,4.7,4.6999,4.6928,4.695,4.6956,4.6977,4.6983,4.6993,4.7013,4.701,4.7028,4.7045,4.7036,4.7061,4.7066,4.7083,4.7088,4.7107,4.709,4.7103,4.7105,4.7108,4.7111,4.7017,4.711,4.7109,4.7109,4.7109,4.7109,0,4.7022,4.7024,4.7043,4.7058,4.7074,4.7055,4.7065,4.7079,4.7102,4.7109,4.7124,4.7149,4.7168,4.7164,4.7181,4.7197,4.7187,4.7201,4.7198,4.7198,4.7126,4.7116,4.7208,4.7208,4.7208,4.7208,4.7208,4.7208,4.7072,4.7108,4.7103,4.7141,4.7143,4.7168,4.7175,4.7183,4.7189,4.7217,4.7233,4.7231,4.7233,4.725,4.7266,4.7264,4.727,4.7287,4.7282,4.7214,4.7204,4.7194,4.7184,4.7289,4.7289,4.7351,4.7352,4.7352]}]]